[[{"header":{"parameterUnit":"m.s-1","parameterCategory":1,"la1":30.2991,"la2":30.254,"lo1":-89.0895,"lo2":-89.0444,"dy":0.0017,"dx":0.0017,"nx":28,"ny":28,"refTime":"2024-07-21T21:00:00:Z","depth":0,"parameterNumber":2,"parameterNumberName":"U-component_of_WINDS"},"data":[0,0,0,0,0,0,0,0,0,0,0,0,0,0,0,0,0,0,0,0,0,0,0,0,0,0,0,0,0,0,0,0,0,0,0,0,0,0,0,0,0,0,0,0,0,0,0,0,0,0,0,0,0,0,0,0,0,0,3.8123,3.8125,0,3.8315,3.8317,3.8319,3.8323,3.8321,3.8319,3.8316,3.8512,3.8519,3.8527,0,0,0,0,0,0,0,0,0,0,0,0,0,3.7757,3.7764,3.8123,3.8125,3.8128,3.8315,3.8317,3.832,3.8324,3.8321,3.8318,3.8315,3.851,3.8518,3.8527,0,0,0,0,0,0,0,0,0,0,0,0,0,3.7929,3.7766,3.8122,3.8152,3.8157,3.8314,3.8317,3.8321,3.8324,3.8321,3.8317,3.8314,3.8507,3.8518,3.8529,3.8669,0,0,3.8563,3.8567,0,0,0,0,0,0,0,0,3.7919,3.7943,3.8145,3.815,3.8156,3.8292,3.826,3.8437,3.8325,3.8261,3.8316,3.8312,3.8442,3.8458,3.8502,3.8678,3.8686,3.8564,3.857,3.8575,3.8578,0,0,0,0,0,0,0,3.7907,3.7934,3.8199,3.8148,3.8155,3.8155,3.8176,3.8294,3.8369,3.8266,3.8267,3.829,3.8444,3.8491,3.8506,3.8689,3.8563,3.8573,3.858,3.8584,3.8988,3.8991,0,0,0,0,0,0,3.789,3.7924,3.8193,3.8205,3.8026,3.8165,3.8188,3.8252,3.8368,3.8382,3.8292,3.8289,3.8474,3.8493,3.8513,3.8683,3.8575,3.8586,3.8592,3.8984,3.8989,3.8993,0,0,0,0,0,0,3.7882,3.7914,3.8185,3.8065,3.8099,3.8175,3.8247,3.8257,3.8305,3.8388,3.8401,3.8327,3.8472,3.8498,3.863,3.869,3.8591,3.8601,3.8979,3.8985,3.8991,3.9026,0,0,0,0,0,0,3.7871,3.7911,3.7966,3.8066,3.8106,3.8299,3.825,3.8264,3.8324,3.8321,3.8423,3.8437,3.8471,3.8613,3.8641,3.8704,3.8609,3.8974,3.8982,3.8989,3.902,3.9032,3.9043,0,0,0,0,0,3.7858,3.7968,3.7969,3.8001,3.8176,3.8303,3.8325,3.8362,3.8329,3.8384,3.8437,3.8434,3.8679,3.8626,3.8658,3.8725,3.897,3.8979,3.8988,3.9014,3.903,3.9043,0,0,0,0,0,0,3.7874,3.7982,3.7984,3.813,3.8207,3.8303,3.8374,3.8378,3.8466,3.846,3.8502,3.8525,3.8656,3.8704,3.8643,3.8866,3.8821,3.8836,3.883,3.8845,3.8857,3.8842,3.8619,0,0,0,0,0,3.7894,3.7989,3.8078,3.8198,3.8237,3.8299,3.8355,3.8377,3.8458,3.8491,3.8554,3.8633,3.8727,3.8789,3.8881,3.9026,3.9048,3.9088,3.91,3.9109,3.9122,3.92,3.9219,3.9023,3.9023,3.9022,0,0,3.7937,3.8008,3.8065,3.8203,3.8265,3.8361,3.8326,3.843,3.85,3.8507,3.8635,3.8683,3.8774,3.8913,3.8977,3.8957,3.9181,3.9121,3.9127,3.9135,3.9211,3.923,3.9246,3.9029,3.9028,3.9027,0,0,3.8064,3.8128,3.8234,3.8297,3.8392,3.8432,3.8457,3.8553,3.8585,3.8714,3.872,3.8805,3.8968,3.9031,3.9085,3.9234,3.9233,3.9262,3.9324,3.94,3.9415,3.9429,3.948,3.9498,3.9275,3.9275,3.9275,0,3.8106,3.8251,3.8288,3.8391,3.845,3.846,3.8567,3.8626,3.8746,3.8786,3.8761,3.8964,3.9026,3.9179,3.9215,3.9259,3.9287,3.9251,3.941,3.9424,3.9438,3.9487,3.9506,3.9278,3.9278,3.9277,3.9277,0,3.8296,3.8397,3.8471,3.8585,3.8653,3.8758,3.8809,3.8873,3.8888,3.893,3.906,3.9135,3.9241,3.9279,3.9295,3.9433,3.9417,3.9401,3.9357,3.9458,3.9505,3.9525,3.9282,3.9281,3.928,3.9279,0,0,3.844,3.8572,3.8599,3.865,3.8754,3.8832,3.8935,3.9039,3.9092,3.9174,3.926,3.9397,3.9382,3.9443,3.9466,3.9532,3.9643,3.9508,3.951,3.9529,3.9797,3.9808,3.983,3.9643,3.9647,3.965,3.9789,0,3.8577,3.8762,3.8797,3.8958,3.905,3.9059,3.9149,3.9222,3.9263,3.9346,3.9392,3.9488,3.9461,3.9498,3.9564,3.9615,3.9697,3.9606,3.9723,3.9727,3.9699,3.9854,3.9867,3.9995,3.9808,3.9811,3.9813,0,3.8763,3.8848,3.9017,3.9107,3.9146,3.9227,3.9323,3.9403,3.9485,3.951,3.9577,3.9592,3.9699,3.9649,3.9796,3.9733,3.9783,3.9815,3.9821,3.9832,3.9776,3.9869,4.0037,4.0055,3.9843,3.9841,3.9839,0,3.8848,3.9006,3.9127,3.917,3.9278,3.9334,3.9381,3.946,3.9519,3.9603,3.9641,3.9737,3.9789,3.9861,3.9901,3.9862,4.0044,3.9998,4.0067,4.0066,4.0105,4.0101,4.0281,4.0139,4.0138,4.0138,4.0138,0,3.8997,3.91,3.9166,3.9241,3.9355,3.9394,3.9506,3.9553,3.9622,3.9704,3.9718,3.9795,3.9844,3.9927,3.9959,4.0074,4.0098,4.0121,4.0128,4.0119,4.0116,4.0152,4.0143,4.0143,4.0142,4.0141,4.014,0,3.9113,3.9161,3.9293,3.9384,3.9409,3.9489,3.9566,3.9638,3.9678,3.9783,3.9809,3.9873,3.9972,4.0019,4.0142,4.0163,4.0293,4.0295,4.0266,4.0268,4.0333,4.0326,4.0541,4.0571,4.041,4.0412,4.0413,0,3.9204,3.9283,3.9382,3.9438,3.9486,3.9577,3.9636,3.9677,3.9739,3.9836,3.9896,3.9995,4.0077,4.0234,4.0291,4.0385,4.0388,4.0457,4.0402,4.039,4.0387,4.0381,4.0388,4.0466,4.0468,4.0469,4.047,0,3.9361,3.938,3.9466,3.956,3.9631,3.9707,3.9781,3.9826,3.9878,3.9946,4.0047,4.011,4.0235,4.0333,4.043,4.0477,4.0482,4.0487,4.0508,4.0499,4.0478,4.0488,4.0291,4.0482,4.0481,4.048,4.0479,4.0479,3.9467,3.9536,3.9615,3.971,3.977,3.9838,3.9909,3.9958,4.0043,4.0147,4.0166,4.0273,4.035,4.0481,4.0532,4.0615,4.0599,4.0629,4.0637,4.0643,4.0646,4.0465,4.0633,4.0633,4.0633,4.0632,4.0632,0,3.9622,3.9673,3.976,3.9863,3.9936,3.9934,4.0016,4.0077,4.0171,4.0243,4.0322,4.0437,4.0531,4.0595,4.069,4.0745,4.0749,4.0768,4.0764,4.0774,4.0656,4.0628,4.0763,4.0763,4.0763,4.0763,4.0763,4.0763,3.9712,3.9829,3.9857,4.0003,4.0054,4.0158,4.0204,4.0267,4.0324,4.0452,4.053,4.057,4.0639,4.0739,4.0824,4.0841,4.0874,4.0894,4.0909,4.0797,4.0783,4.077,4.0744,4.0901,4.0901,4.1021,4.1022,4.1023]},{"header":{"parameterUnit":"m.s-1","parameterCategory":1,"la1":30.2991,"la2":30.254,"lo1":-89.0895,"lo2":-89.0444,"dy":0.0017,"dx":0.0017,"nx":28,"ny":28,"refTime":"2024-07-21T21:00:00:Z","depth":0,"parameterNumber":3,"parameterNumberName":"V-component_of_WINDS"},"data":[0,0,0,0,0,0,0,0,0,0,0,0,0,0,0,0,0,0,0,0,0,0,0,0,0,0,0,0,0,0,0,0,0,0,0,0,0,0,0,0,0,0,0,0,0,0,0,0,0,0,0,0,0,0,0,0,0,0,-1.5309,-1.5309,0,-1.5316,-1.5316,-1.5316,-1.5326,-1.5326,-1.5326,-1.5326,-1.5333,-1.5333,-1.5333,0,0,0,0,0,0,0,0,0,0,0,0,0,-1.5302,-1.5302,-1.5309,-1.5309,-1.5309,-1.5316,-1.5316,-1.5316,-1.5326,-1.5326,-1.5326,-1.5326,-1.5333,-1.5333,-1.5333,0,0,0,0,0,0,0,0,0,0,0,0,0,-1.5307,-1.5302,-1.5309,-1.5315,-1.5315,-1.5316,-1.5316,-1.5316,-1.5326,-1.5326,-1.5326,-1.5326,-1.5333,-1.5333,-1.5333,-1.5329,0,0,-1.5333,-1.5333,0,0,0,0,0,0,0,0,-1.5307,-1.5307,-1.5314,-1.5314,-1.5315,-1.532,-1.5317,-1.5321,-1.5326,-1.5322,-1.5326,-1.5327,-1.5329,-1.5329,-1.533,-1.5329,-1.533,-1.5333,-1.5334,-1.5334,-1.5334,0,0,0,0,0,0,0,-1.5306,-1.5307,-1.5312,-1.5314,-1.5314,-1.5317,-1.5318,-1.5317,-1.5324,-1.5322,-1.5323,-1.5324,-1.5329,-1.533,-1.533,-1.533,-1.5333,-1.5334,-1.5334,-1.5334,-1.5326,-1.5325,0,0,0,0,0,0,-1.5305,-1.5306,-1.5312,-1.5312,-1.5311,-1.5317,-1.5318,-1.5318,-1.5324,-1.5325,-1.5323,-1.5324,-1.533,-1.533,-1.5331,-1.5325,-1.5334,-1.5334,-1.5334,-1.5326,-1.5326,-1.5325,0,0,0,0,0,0,-1.5305,-1.5305,-1.5311,-1.5309,-1.531,-1.5316,-1.5317,-1.5318,-1.5319,-1.5325,-1.5326,-1.5323,-1.533,-1.533,-1.5329,-1.5326,-1.5334,-1.5334,-1.5326,-1.5326,-1.5325,-1.5316,0,0,0,0,0,0,-1.5305,-1.5305,-1.5304,-1.5309,-1.531,-1.531,-1.5317,-1.5318,-1.5319,-1.532,-1.5325,-1.5326,-1.533,-1.5329,-1.5329,-1.5326,-1.5334,-1.5326,-1.5326,-1.5326,-1.5316,-1.5315,-1.5314,0,0,0,0,0,-1.5304,-1.5301,-1.5304,-1.5304,-1.5309,-1.531,-1.531,-1.5316,-1.5319,-1.5318,-1.5321,-1.5326,-1.5326,-1.5329,-1.5329,-1.5326,-1.5327,-1.5326,-1.5326,-1.5317,-1.5315,-1.5314,0,0,0,0,0,0,-1.5295,-1.5302,-1.5305,-1.5303,-1.5306,-1.5311,-1.531,-1.5314,-1.5315,-1.5316,-1.5322,-1.5323,-1.5321,-1.5324,-1.5326,-1.5322,-1.5327,-1.5327,-1.532,-1.5319,-1.5318,-1.5317,-1.5334,0,0,0,0,0,-1.5292,-1.5293,-1.5299,-1.5296,-1.5298,-1.5303,-1.5304,-1.5308,-1.5311,-1.5312,-1.5316,-1.5318,-1.5319,-1.5319,-1.532,-1.5317,-1.5318,-1.5315,-1.5314,-1.5313,-1.5312,-1.531,-1.5308,-1.5323,-1.5323,-1.5323,0,0,-1.5287,-1.5291,-1.5291,-1.5295,-1.5297,-1.5297,-1.5304,-1.5304,-1.5304,-1.5312,-1.5311,-1.5314,-1.5317,-1.5314,-1.5314,-1.5316,-1.5308,-1.5312,-1.5311,-1.5311,-1.5309,-1.5307,-1.5306,-1.5323,-1.5323,-1.5323,0,0,-1.5278,-1.5281,-1.528,-1.5282,-1.5286,-1.529,-1.5289,-1.5294,-1.5296,-1.5296,-1.5301,-1.5302,-1.5303,-1.5305,-1.5306,-1.5298,-1.5302,-1.5298,-1.5291,-1.5289,-1.5288,-1.5287,-1.5283,-1.5282,-1.5297,-1.5297,-1.5297,0,-1.5271,-1.5272,-1.5278,-1.5277,-1.5279,-1.5286,-1.5284,-1.5286,-1.529,-1.5291,-1.5294,-1.5295,-1.5298,-1.5296,-1.5294,-1.5295,-1.5294,-1.5297,-1.5288,-1.5287,-1.5286,-1.5282,-1.5281,-1.5297,-1.5297,-1.5297,-1.5297,0,-1.5263,-1.5263,-1.5261,-1.5265,-1.5266,-1.5265,-1.5271,-1.5271,-1.5275,-1.5278,-1.5277,-1.5281,-1.5282,-1.5282,-1.5286,-1.5281,-1.5282,-1.5287,-1.5292,-1.5284,-1.528,-1.5279,-1.5296,-1.5296,-1.5296,-1.5296,0,0,-1.5247,-1.5254,-1.5254,-1.5255,-1.526,-1.526,-1.5259,-1.5261,-1.5261,-1.5264,-1.5263,-1.5264,-1.5268,-1.5269,-1.5273,-1.5271,-1.5264,-1.5276,-1.5276,-1.5273,-1.5257,-1.5253,-1.5252,-1.5267,-1.5266,-1.5266,-1.5257,0,-1.5238,-1.5237,-1.5243,-1.524,-1.524,-1.5247,-1.5246,-1.5249,-1.5252,-1.5252,-1.5256,-1.5256,-1.5262,-1.5263,-1.5261,-1.5265,-1.526,-1.5266,-1.5265,-1.5265,-1.5263,-1.525,-1.5246,-1.5237,-1.5256,-1.5255,-1.5255,0,-1.5227,-1.523,-1.5227,-1.5232,-1.5232,-1.5231,-1.5233,-1.5233,-1.5237,-1.5239,-1.5241,-1.5245,-1.5244,-1.525,-1.5249,-1.5252,-1.5252,-1.5254,-1.5254,-1.5253,-1.5259,-1.5249,-1.5234,-1.5233,-1.5254,-1.5254,-1.5254,0,-1.5215,-1.5217,-1.5216,-1.5217,-1.5223,-1.5222,-1.5224,-1.5228,-1.5229,-1.5231,-1.5231,-1.5233,-1.5233,-1.5234,-1.5239,-1.5243,-1.5237,-1.5243,-1.5239,-1.5238,-1.5236,-1.5236,-1.5221,-1.5238,-1.5238,-1.5238,-1.5238,0,-1.5204,-1.5202,-1.521,-1.5209,-1.5207,-1.5214,-1.5211,-1.5214,-1.5217,-1.5217,-1.5223,-1.5222,-1.523,-1.523,-1.5234,-1.5231,-1.5232,-1.5233,-1.5234,-1.5232,-1.5232,-1.5232,-1.5232,-1.5237,-1.5238,-1.5238,-1.5238,0,-1.519,-1.5195,-1.5194,-1.52,-1.5201,-1.5199,-1.5204,-1.5203,-1.5207,-1.5206,-1.5206,-1.5212,-1.5213,-1.5218,-1.522,-1.5222,-1.5218,-1.5221,-1.5217,-1.5217,-1.5212,-1.5212,-1.5195,-1.5193,-1.5212,-1.5212,-1.5212,0,-1.5182,-1.518,-1.5186,-1.5186,-1.5188,-1.5189,-1.5189,-1.5196,-1.5196,-1.52,-1.5199,-1.52,-1.52,-1.5201,-1.5205,-1.5206,-1.5208,-1.5202,-1.5208,-1.5206,-1.5207,-1.5207,-1.5206,-1.5201,-1.52,-1.52,-1.52,0,-1.5167,-1.517,-1.5171,-1.5173,-1.5174,-1.5175,-1.5178,-1.5177,-1.5185,-1.5185,-1.5185,-1.5186,-1.5188,-1.5188,-1.519,-1.5192,-1.5197,-1.5198,-1.5197,-1.5194,-1.5192,-1.5192,-1.5212,-1.5198,-1.5198,-1.5199,-1.5199,-1.5199,-1.5155,-1.5154,-1.5158,-1.5158,-1.5161,-1.5163,-1.5162,-1.5166,-1.5167,-1.5168,-1.5172,-1.5172,-1.5175,-1.5178,-1.518,-1.518,-1.5183,-1.5181,-1.5181,-1.518,-1.5178,-1.5193,-1.518,-1.518,-1.518,-1.518,-1.5181,0,-1.514,-1.5143,-1.5143,-1.5146,-1.5147,-1.5152,-1.5155,-1.5155,-1.5154,-1.5157,-1.5158,-1.5158,-1.5159,-1.5164,-1.5165,-1.5163,-1.5166,-1.5163,-1.5163,-1.5163,-1.5176,-1.5177,-1.5162,-1.5162,-1.5162,-1.5162,-1.5162,-1.5162,-1.5132,-1.513,-1.5133,-1.5132,-1.5135,-1.5135,-1.5136,-1.5138,-1.514,-1.514,-1.5141,-1.5144,-1.5147,-1.5149,-1.5149,-1.5151,-1.515,-1.5147,-1.5149,-1.5161,-1.5163,-1.5164,-1.5165,-1.5147,-1.5147,-1.5136,-1.5136,-1.5136]}]]